| time (UTC) | temp C | wind direction | speed KPH | gust KPH | rain 1hr cm | rain 24hr cm | rain mn cm | humidity % | barometer mb |
| 20260505203017 | 15 | 135 | 1.6 | 0.0 | 0.00 | 0.00 | 0.00 | 58 | 1026.3 |
| 20260505200016 | 15 | 112 | 0.0 | 0.0 | 0.00 | 0.00 | 0.00 | 59 | 1025.6 |
| 20260505193015 | 15 | 67 | 0.0 | 0.0 | 0.00 | 0.00 | 0.00 | 58 | 1025.9 |
| 20260505193009 | 15 | 135 | 1.6 | 0.0 | 0.00 | 0.00 | 0.00 | 58 | 1025.9 |
| 20260505190007 | 15 | 90 | 0.0 | 0.0 | 0.00 | 0.00 | 0.00 | 59 | 1025.7 |
| 20260505183007 | 15 | 112 | 0.0 | 0.0 | 0.00 | 0.00 | 0.00 | 58 | 1025.6 |
| 20260505180006 | 15 | 135 | 0.0 | 0.0 | 0.00 | 0.00 | 0.00 | 58 | 1025.3 |
| 20260505173005 | 15 | 135 | 0.0 | 0.0 | 0.00 | 0.00 | 0.00 | 57 | 1025.1 |
| 20260505170004 | 15 | 67 | 0.0 | 0.0 | 0.00 | 0.00 | 0.00 | 56 | 1024.6 |
| 20260505163003 | 15 | 112 | 0.0 | 0.0 | 0.00 | 0.00 | 0.00 | 55 | 1024.5 |
| 20260505153002 | 16 | 112 | 0.0 | 0.0 | 0.00 | 0.00 | 0.00 | 55 | 1024.0 |
| 20260505123027 | 17 | 45 | 0.0 | 0.0 | 0.00 | 0.00 | 0.00 | 56 | 1026.0 |
| 20260505120027 | 17 | 45 | 0.0 | 0.0 | 0.00 | 0.00 | 0.00 | 57 | 1026.0 |
| 20260505113025 | 18 | 0 | 0.0 | 0.0 | 0.00 | 0.00 | 0.00 | 54 | 1025.5 |
| 20260505093022 | 20 | 292 | 0.0 | 0.0 | 0.00 | 0.00 | 0.00 | 41 | 1023.1 |
| 20260505090022 | 21 | 225 | 12.9 | 0.0 | 0.00 | 0.00 | 0.00 | 37 | 1022.6 |
| 20260505083021 | 21 | 270 | 9.7 | 0.0 | 0.00 | 0.00 | 0.00 | 36 | 1021.9 |
| 20260505080020 | 23 | 292 | 6.4 | 0.0 | 0.00 | 0.00 | 0.00 | 33 | 1021.4 |
| 20260505073010 | 23 | 270 | 9.7 | 0.0 | 0.00 | 0.00 | 0.00 | 31 | 1020.8 |
| 20260505070009 | 27 | 247 | 16.1 | 0.0 | 0.00 | 0.00 | 0.00 | 31 | 1020.2 |
| 20260505063008 | 28 | 292 | 4.8 | 0.0 | 0.00 | 0.00 | 0.00 | 27 | 1020.3 |
| 20260505060008 | 28 | 315 | 3.2 | 0.0 | 0.00 | 0.00 | 0.00 | 27 | 1020.6 |
| 20260505053007 | 28 | 315 | 14.5 | 0.0 | 0.00 | 0.00 | 0.00 | 27 | 1020.9 |
| 20260505040025 | 28 | 337 | 0.0 | 0.0 | 0.00 | 0.00 | 0.00 | 29 | 1022.2 |
| 20260505033024 | 27 | 315 | 14.5 | 0.0 | 0.00 | 0.00 | 0.00 | 31 | 1022.9 |
| 20260505030024 | 27 | 315 | 12.9 | 0.0 | 0.00 | 0.00 | 0.00 | 33 | 1023.3 |
| 20260505023023 | 26 | 315 | 16.1 | 0.0 | 0.00 | 0.00 | 0.00 | 35 | 1024.0 |
| 20260505020022 | 25 | 315 | 4.8 | 0.0 | 0.00 | 0.00 | 0.00 | 36 | 1024.7 |
| 20260505013022 | 24 | 0 | 3.2 | 0.0 | 0.00 | 0.00 | 0.00 | 36 | 1025.3 |
| 20260505010021 | 22 | 0 | 0.0 | 0.0 | 0.00 | 0.00 | 0.00 | 37 | 1026.1 |
| 20260505003020 | 21 | 112 | 0.0 | 0.0 | 0.00 | 0.00 | 0.00 | 40 | 1026.3 |
| 20260505000019 | 20 | 112 | 0.0 | 0.0 | 0.00 | 0.00 | 0.00 | 45 | 1026.7 |
| 20260504233018 | 18 | 135 | 3.2 | 0.0 | 0.00 | 0.00 | 0.00 | 51 | 1027.2 |
| 20260504230018 | 16 | 90 | 0.0 | 0.0 | 0.00 | 0.00 | 0.00 | 54 | 1027.2 |
| 20260504223016 | 15 | 157 | 0.0 | 0.0 | 0.00 | 0.00 | 0.00 | 60 | 1027.2 |
| 20260504220015 | 13 | 112 | 0.0 | 0.0 | 0.00 | 0.00 | 0.00 | 66 | 1027.0 |
| 20260504213015 | 12 | 135 | 0.0 | 0.0 | 0.00 | 0.00 | 0.00 | 67 | 1026.8 |
| 20260504210014 | 11 | 157 | 0.0 | 0.0 | 0.00 | 0.00 | 0.00 | 66 | 1025.9 |